Thermopolis, WY

7:54 PM MDT on July 24, 2016 (GMT -0600)
Thermopolis

Weather History for KTBX - September, 2013

Change the Weather History Date:

Wednesday, September 18, 2013

  Actual Average (KWRL) Record (KWRL)
Temperature  
Mean Temperature 50 °F 57 °F  
Max Temperature 59 °F 73 °F 93 °F (1998)
Min Temperature 41 °F 42 °F 21 °F (1965)
Degree Days  
Heating Degree Days 15 8  
Month to date heating degree days 90  
Since 1 July heating degree days 126  
Cooling Degree Days 0 1  
Month to date cooling degree days 28  
Year to date cooling degree days 534  
Moisture  
Dew Point 38 °F    
Average Humidity 70    
Maximum Humidity 100    
Minimum Humidity 24    
Precipitation  
Precipitation 0.00 in 0.04 in 2.06 in (1967)
Month to date precipitation 0.46  
Year to date precipitation 5.91  
Sea Level Pressure  
Sea Level Pressure 30.03 in    
Wind  
Wind Speed 16 mph (WSW)    
Max Wind Speed 29 mph    
Max Gust Speed 40 mph    
Visibility 8 miles    
Events Fog , Rain    
T = Trace of Precipitation, MM = Missing Value Source: NWS Daily Summary

Daily Weather History Graph

Daily Weather History Graph

Search for Another Location

Airport or City:

Trip Planner

Search our weather history database for the weather conditions in past years. The results will help you decide how hot, cold, wet, or windy it might be!

Date:

Astronomy

Sep. 18, 2013 Rise Set
Actual Time 6:56 AM MDT 7:17 PM MDT
Civil Twilight 6:27 AM MDT 7:45 PM MDT
Nautical Twilight 5:53 AM MDT 8:19 PM MDT
Astronomical Twilight 5:19 AM MDT 8:53 PM MDT
Moon 6:41 PM MDT (9/18) 6:01 AM MDT (9/18)
Length of Visible Light 13h 18m
Length of Day
12h 20m
Waxing Gibbous, 99% of the Moon is Illuminated
Sep 18
Waxing Gibbous
Sep 19
Full
Sep 26
Last Quarter
Oct 4
New
Oct 11
First Quarter

Hourly Weather History & Observations

Time (MDT) Temp. Windchill Dew Point Humidity Pressure Visibility Wind Dir Wind Speed Gust Speed Precip Events Conditions
12:15 AM 46.4 °F 38.1 °F 46.4 °F 100% 30.01 in 0.2 mi NW 24.2 mph - N/A Rain Rain
12:35 AM 46.4 °F 39.0 °F 46.4 °F 100% 30.03 in 0.2 mi NNW 19.6 mph - N/A Rain Rain
12:55 AM 46.4 °F 39.5 °F 44.6 °F 93% 30.00 in 0.2 mi NNW 17.3 mph - N/A   Unknown
1:15 AM 46.4 °F 40.4 °F 44.6 °F 93% 30.00 in 0.2 mi North 13.8 mph - N/A   Overcast
1:35 AM 46.4 °F 44.3 °F 44.6 °F 93% 30.00 in 10.0 mi North 4.6 mph 10.4 mph N/A   Overcast
1:55 AM 51.8 °F - 42.8 °F 71% 30.01 in 7.0 mi SSW 13.8 mph - N/A   Light Drizzle
2:15 AM 51.8 °F - 41.0 °F 67% 30.00 in 10.0 mi SW 17.3 mph 24.2 mph N/A   Overcast
2:35 AM 50.0 °F - 42.8 °F 76% 30.02 in 10.0 mi SSW 11.5 mph 20.7 mph N/A   Overcast
2:55 AM 48.2 °F - 44.6 °F 87% 30.03 in 10.0 mi SSW 20.7 mph 25.3 mph N/A Rain Light Rain
3:15 AM 46.4 °F 42.4 °F 46.4 °F 100% 30.00 in 3.0 mi South 8.1 mph - N/A Rain Rain
3:35 AM 46.4 °F 41.1 °F 44.6 °F 93% 29.99 in 0.5 mi SSE 11.5 mph - N/A   Light Drizzle
3:55 AM 46.4 °F 40.1 °F 46.4 °F 100% 30.00 in 0.2 mi SSE 15.0 mph - N/A   Unknown
4:15 AM 46.4 °F 40.7 °F 44.6 °F 93% 29.99 in 0.2 mi SSE 12.7 mph 25.3 mph N/A Rain Light Rain
4:35 AM 46.4 °F 41.1 °F 44.6 °F 93% 29.98 in 10.0 mi SSE 11.5 mph 21.9 mph N/A Rain Rain
4:55 AM 48.2 °F - 44.6 °F 87% 29.95 in 7.0 mi SE 24.2 mph 28.8 mph N/A Rain Rain
5:15 AM 46.4 °F 39.2 °F 44.6 °F 93% 29.94 in 0.2 mi SE 18.4 mph 26.5 mph N/A   Unknown
5:35 AM 46.4 °F 39.0 °F 44.6 °F 93% 29.94 in 0.2 mi SSE 19.6 mph 28.8 mph N/A   Unknown
5:55 AM 46.4 °F 39.2 °F 44.6 °F 93% 29.95 in 0.2 mi SSE 18.4 mph 27.6 mph N/A   Unknown
6:15 AM 46.4 °F 38.7 °F 44.6 °F 93% 29.95 in 0.2 mi SSE 20.7 mph 27.6 mph N/A   Unknown
6:35 AM 46.4 °F 38.5 °F 44.6 °F 93% 29.95 in 0.2 mi SSE 21.9 mph 33.4 mph N/A   Unknown
6:55 AM 44.6 °F 38.1 °F 44.6 °F 100% 29.95 in 0.2 mi SSE 13.8 mph - N/A   Unknown
7:15 AM 44.6 °F 37.8 °F 44.6 °F 100% 29.95 in 10.0 mi SSE 15.0 mph 21.9 mph N/A   Scattered Clouds
7:35 AM 44.6 °F 37.8 °F 44.6 °F 100% 29.96 in 0.2 mi SSE 15.0 mph - N/A Fog Fog
7:55 AM 46.4 °F 39.8 °F 44.6 °F 93% 29.97 in 0.2 mi SE 16.1 mph - N/A Fog Fog
8:15 AM 46.4 °F 40.1 °F 46.4 °F 100% 29.98 in 0.2 mi SE 15.0 mph - N/A Fog Fog
8:35 AM 46.4 °F 40.4 °F 46.4 °F 100% 29.98 in 0.5 mi SE 13.8 mph - N/A Fog Fog
8:55 AM 48.2 °F - 46.4 °F 93% 29.99 in 10.0 mi SSE 10.4 mph - N/A   Scattered Clouds
9:15 AM 50.0 °F - 46.4 °F 87% 30.00 in 10.0 mi Calm Calm - N/A   Clear
9:35 AM 50.0 °F - 46.4 °F 87% 30.01 in 10.0 mi NNW 6.9 mph - N/A   Scattered Clouds
9:55 AM 50.0 °F - 46.4 °F 87% 30.00 in 10.0 mi North 12.7 mph - N/A   Scattered Clouds
10:15 AM 50.0 °F - 46.4 °F 87% 30.01 in 10.0 mi North 9.2 mph - N/A   Mostly Cloudy
10:35 AM 50.0 °F - 44.6 °F 82% 30.00 in 10.0 mi North 13.8 mph - N/A   Mostly Cloudy
10:55 AM 46.4 °F 41.1 °F 42.8 °F 87% 30.02 in 10.0 mi NNW 11.5 mph - N/A Rain Rain
11:15 AM 50.0 °F - 44.6 °F 82% 30.01 in 10.0 mi North 6.9 mph - N/A   Mostly Cloudy
11:35 AM 51.8 °F - 46.4 °F 82% 30.01 in 10.0 mi NNW 11.5 mph - N/A   Mostly Cloudy
11:55 AM 51.8 °F - 46.4 °F 82% 30.01 in 10.0 mi NW 11.5 mph - N/A   Mostly Cloudy
12:15 PM 50.0 °F - 46.4 °F 87% 30.01 in 10.0 mi NW 6.9 mph - N/A   Overcast
12:35 PM 53.6 °F - 46.4 °F 77% 30.01 in 10.0 mi Calm Calm - N/A   Mostly Cloudy
12:55 PM 53.6 °F - 44.6 °F 72% 30.01 in 10.0 mi SSE 9.2 mph - N/A   Scattered Clouds
1:15 PM 55.4 °F - 42.8 °F 63% 30.01 in 10.0 mi South 16.1 mph 20.7 mph N/A   Scattered Clouds
1:35 PM 59.0 °F - 41.0 °F 51% 30.01 in 10.0 mi South 15.0 mph 24.2 mph N/A   Scattered Clouds
1:55 PM 57.2 °F - 42.8 °F 59% 30.02 in 10.0 mi South 12.7 mph 19.6 mph N/A   Mostly Cloudy
2:15 PM 59.0 °F - 33.8 °F 39% 30.01 in 10.0 mi SSW 17.3 mph 29.9 mph N/A   Scattered Clouds
2:35 PM 59.0 °F - 32.0 °F 36% 30.02 in 10.0 mi SSW 24.2 mph 31.1 mph N/A   Clear
2:55 PM 59.0 °F - 30.2 °F 34% 30.01 in 10.0 mi South 18.4 mph 27.6 mph N/A   Clear
3:15 PM 59.0 °F - 28.4 °F 31% 30.02 in 10.0 mi SSW 24.2 mph 35.7 mph N/A   Clear
3:35 PM 59.0 °F - 26.6 °F 29% 30.02 in 10.0 mi SSW 24.2 mph 40.3 mph N/A   Clear
3:55 PM 57.2 °F - 26.6 °F 31% 30.03 in 10.0 mi SW 23.0 mph 31.1 mph N/A   Clear
4:15 PM 57.2 °F - 23.0 °F 27% 30.03 in 10.0 mi SW 19.6 mph 28.8 mph N/A   Clear
4:35 PM 57.2 °F - 23.0 °F 27% 30.04 in 10.0 mi SW 19.6 mph 32.2 mph N/A   Clear
4:55 PM 57.2 °F - 23.0 °F 27% 30.04 in 10.0 mi SW 20.7 mph 29.9 mph N/A   Clear
5:15 PM 55.4 °F - 21.2 °F 26% 30.04 in 10.0 mi WSW 20.7 mph 29.9 mph N/A   Clear
5:35 PM 55.4 °F - 21.2 °F 26% 30.05 in 10.0 mi SW 20.7 mph 28.8 mph N/A   Clear
5:55 PM 55.4 °F - 19.4 °F 25% 30.05 in 10.0 mi WSW 28.8 mph 34.5 mph N/A   Clear
6:15 PM 53.6 °F - 17.6 °F 24% 30.06 in 10.0 mi WSW 26.5 mph 34.5 mph N/A   Clear
6:35 PM 53.6 °F - 23.0 °F 30% 30.07 in 10.0 mi West 16.1 mph 25.3 mph N/A   Clear
6:55 PM 51.8 °F - 24.8 °F 35% 30.08 in 10.0 mi West 16.1 mph - N/A   Clear
7:15 PM 51.8 °F - 24.8 °F 35% 30.09 in 10.0 mi West 18.4 mph - N/A   Clear
7:35 PM 50.0 °F - 23.0 °F 35% 30.09 in 10.0 mi West 19.6 mph 26.5 mph N/A   Clear
7:55 PM 50.0 °F - 26.6 °F 40% 30.10 in 10.0 mi NW 17.3 mph - N/A   Clear
8:15 PM 46.4 °F 40.7 °F 32.0 °F 57% 30.12 in 10.0 mi WNW 12.7 mph 18.4 mph N/A   Clear
8:35 PM 44.6 °F 37.4 °F 32.0 °F 61% 30.13 in 10.0 mi North 16.1 mph - N/A   Clear
8:55 PM 44.6 °F 37.2 °F 33.8 °F 66% 30.14 in 10.0 mi North 17.3 mph - N/A   Clear
9:15 PM 44.6 °F 36.9 °F 32.0 °F 61% 30.14 in 10.0 mi NNW 18.4 mph - N/A   Clear
9:35 PM 44.6 °F 37.8 °F 32.0 °F 61% 30.14 in 10.0 mi North 15.0 mph - N/A   Clear
9:55 PM 42.8 °F 35.8 °F 33.8 °F 70% 30.16 in 10.0 mi NNW 13.8 mph - N/A   Clear
10:15 PM 42.8 °F 35.8 °F 33.8 °F 70% 30.16 in 10.0 mi North 13.8 mph 18.4 mph N/A   Clear
10:35 PM 42.8 °F 36.2 °F 33.8 °F 70% 30.16 in 10.0 mi North 12.7 mph - N/A   Clear
10:55 PM 41.0 °F 35.8 °F 33.8 °F 76% 30.17 in 10.0 mi NNW 8.1 mph - N/A   Clear
11:15 PM 42.8 °F 37.5 °F 33.8 °F 70% 30.17 in 10.0 mi North 9.2 mph - N/A   Clear
11:35 PM 42.8 °F 36.2 °F 32.0 °F 66% 30.17 in 10.0 mi NNE 12.7 mph - N/A   Clear
11:55 PM 42.8 °F 38.6 °F 32.0 °F 66% 30.17 in 10.0 mi North 6.9 mph - N/A   Clear